1500847200.96,49709,20.88,74206.0,5.73,-19.99,-20.93,0,*7F
1500847202.2,49710,20.88,74210.3,5.73,-20.09,-21.23,0,*7E
1500847203.41,49711,20.88,74208.5,5.71,-20.15,-21.13,0,*73
1500847204.6,49712,20.88,74208.5,5.71,-19.99,-21.13,0,*7E
1500847205.83,49713,20.88,74212.3,5.73,-19.95,-20.89,0,*73
1500847207.07,49714,20.88,74218.8,5.73,-19.81,-20.73,0,*74
1500847208.27,49715,20.88,74218.0,5.71,-19.91,-20.93,0,*78
1500847209.49,49716,20.88,74218.0,5.73,-19.99,-20.93,0,*71
1500847210.68,49717,20.88,74218.5,5.71,-20.05,-21.13,0,*74
1500847211.92,49718,20.88,74222.3,5.71,-20.15,-21.23,0,*79
1500847213.13,49719,20.88,74220.0,5.71,-20.29,-21.23,0,*77
1500847214.38,49720,20.88,74216.5,5.71,-20.15,-21.23,0,*72
1500847215.6,49721,20.88,74222.8,5.71,-19.99,-21.03,0,*7F
1500847216.82,49722,20.88,74222.8,5.71,-19.99,-20.99,0,*7E
1500847218.0,49723,20.88,74222.0,5.71,-20.05,-21.13,0,*73
1500847219.22,49724,20.88,74216.3,5.71,-20.29,-21.23,0,*79
1500847220.43,49725,20.88,74218.8,5.71,-20.35,-21.39,0,*7E
1500847221.67,49726,20.88,74218.3,5.69,-20.35,-21.39,0,*74
1500847222.88,49727,20.88,74216.3,5.69,-20.43,-21.43,0,*79
1500847224.12,49728,20.88,74216.0,5.69,-20.49,-21.43,0,*7C
1500847225.32,49729,20.88,74222.5,5.67,-20.43,-21.43,0,*79
1500847226.54,49730,20.88,74222.8,5.67,-20.53,-21.47,0,*74
1500847227.73,49731,20.88,74226.3,5.67,-20.39,-21.43,0,*7D
1500847228.92,49732,20.88,74220.5,5.67,-20.09,-21.13,0,*78
1500847230.14,49733,20.88,74224.0,5.67,-20.09,-20.99,0,*7A
1500847231.35,49734,20.88,74220.5,5.67,-20.05,-20.99,0,*71
1500847232.57,49735,20.88,74216.0,5.69,-19.75,-20.73,0,*77
1500847233.79,49736,20.88,74218.8,5.67,-20.05,-20.99,0,*73
1500847234.97,49737,20.88,74216.8,5.67,-20.09,-21.13,0,*7D
1500847236.19,49738,20.88,74218.0,5.67,-20.19,-21.13,0,*73
1500847237.4,49739,20.88,74214.8,5.67,-20.35,-21.47,0,*7D
1500847238.62,49740,20.88,74218.3,5.67,-20.39,-21.33,0,*7C
1500847239.86,49741,20.88,74220.0,5.67,-20.49,-21.57,0,*78
1500847241.1,49742,20.88,74222.5,5.67,-20.53,-21.57,0,*70
1500847242.35,49743,20.88,74226.0,5.61,-20.53,-21.39,0,*7F
1500847243.54,49744,20.88,74220.8,5.63,-20.09,-21.17,0,*79
1500847244.76,49745,20.88,74218.0,5.63,-20.25,-21.23,0,*71
1500847245.98,49746,20.88,74224.5,5.61,-20.25,-21.17,0,*77
1500847247.19,49747,20.88,74220.8,5.63,-19.95,-20.89,0,*73
1500847248.39,49748,20.88,74222.3,5.63,-19.99,-20.93,0,*7B
1500847249.6,49749,20.88,74222.3,5.63,-20.15,-21.09,0,*76
1500847250.82,49750,20.88,74220.5,5.63,-20.25,-21.23,0,*75
1500847252.05,49751,20.88,74220.0,5.63,-19.99,-21.03,0,*7B
1500847253.27,49752,20.88,74218.8,5.67,-19.81,-20.89,0,*76
1500847254.48,49753,20.88,74218.0,5.63,-20.15,-21.17,0,*72
1500847255.69,49754,20.88,74214.8,5.63,-19.95,-20.93,0,*7A
1500847256.9,49755,20.88,74212.8,5.63,-20.15,-21.17,0,*74
1500847258.12,49756,20.88,74206.3,5.67,-19.85,-20.73,0,*73
1500847259.34,49757,20.88,74206.8,5.67,-20.09,-20.99,0,*78
1500847260.56,49758,20.88,74214.0,5.63,-20.25,-21.33,0,*7C
1500847261.77,49759,20.88,74216.0,5.63,-20.29,-21.23,0,*70
1500847263.02,49760,20.88,74220.5,5.61,-20.39,-21.33,0,*78
1500847264.21,49761,20.88,74224.3,5.63,-20.39,-21.47,0,*78
1500847265.43,49762,20.88,74224.0,5.63,-20.25,-21.33,0,*75
1500847266.66,49763,20.88,74228.8,5.61,-20.29,-21.33,0,*7A
1500847267.88,49764,20.88,74230.3,5.61,-20.39,-21.39,0,*76
1500847269.1,49765,20.88,74228.8,5.61,-20.09,-20.93,0,*75
1500847270.29,49766,20.88,74230.3,5.63,-20.09,-20.93,0,*74
1500847271.55,49767,20.88,74230.8,5.61,-19.85,-20.79,0,*7D
1500847272.75,49768,20.88,74230.0,5.63,-19.75,-20.73,0,*75
1500847273.98,49769,20.88,74226.5,5.63,-19.61,-20.59,0,*79
1500847275.2,49770,20.88,74222.5,5.61,-19.75,-20.73,0,*7E
1500847276.41,49771,20.88,74218.3,5.63,-19.81,-20.69,0,*7D
1500847277.64,49772,20.88,74220.5,5.63,-19.65,-20.59,0,*77
1500847278.87,49773,20.88,74212.0,5.63,-19.65,-20.69,0,*75
1500847280.14,49774,20.88,74210.5,5.69,-19.41,-20.49,0,*7C
1500847281.39,49775,20.88,74208.8,5.67,-19.57,-20.53,0,*7F
1500847282.67,49776,20.88,74210.8,5.69,-19.23,-20.35,0,*71
1500847283.92,49777,20.88,74214.8,5.67,-19.57,-20.53,0,*7D
1500847285.17,49778,20.88,74214.5,5.69,-19.57,-20.63,0,*7F
1500847286.4,49779,20.88,74218.0,5.69,-19.51,-20.29,0,*76
1500847287.62,49780,20.88,74212.0,5.69,-19.07,-19.91,0,*7A
1500847288.86,49781,20.88,74208.0,5.69,-19.23,-20.05,0,*7A
1500847290.11,49782,20.88,74204.8,5.69,-19.23,-20.05,0,*79
1500847291.31,49783,20.88,74200.8,5.71,-19.13,-19.99,0,*7D
1500847292.53,49784,20.88,74194.3,5.73,-19.07,-19.75,0,*7F
1500847293.78,49785,20.88,74192.5,5.73,-18.79,-19.61,0,*73
1500847294.97,49786,20.88,74188.3,5.75,-19.03,-19.71,0,*7B
1500847296.16,49787,20.88,74186.0,5.75,-18.73,-19.51,0,*7E
1500847297.41,49788,20.88,74192.5,5.75,-18.93,-19.65,0,*78
1500847298.63,49789,20.88,74196.3,5.73,-18.65,-19.51,0,*71
1500847299.83,49790,20.88,74206.5,5.75,-18.65,-19.37,0,*7F
1500847301.08,49791,20.88,74206.0,5.77,-18.83,-19.57,0,*72
1500847302.3,49792,20.88,74206.5,5.77,-18.99,-19.75,0,*7A
1500847303.51,49793,20.88,74208.5,5.75,-19.03,-19.85,0,*74
1500847304.73,49794,20.88,74208.0,5.75,-19.03,-19.81,0,*77
1500847305.93,49795,20.88,74208.3,5.75,-19.17,-19.95,0,*76
1500847307.18,49796,20.88,74206.5,5.75,-18.93,-19.61,0,*73
1500847308.4,49797,20.88,74210.3,5.77,-18.99,-19.75,0,*7F
1500847309.6,49798,20.88,74208.5,5.79,-18.99,-19.99,0,*7C
1500847310.83,49799,20.88,74210.0,5.77,-19.13,-19.91,0,*78
1500847312.05,49800,20.88,74210.0,5.79,-19.13,-19.85,0,*7C
1500847313.28,49801,20.88,74212.8,5.79,-19.23,-19.99,0,*73
1500847314.53,49802,20.88,74212.0,5.77,-19.27,-20.05,0,*75
1500847315.81,49803,20.88,74214.8,5.77,-19.31,-20.19,0,*7E
1500847317.05,49804,20.88,74212.5,5.77,-19.41,-20.25,0,*71
1500847318.3,49805,20.88,74218.5,5.79,-19.27,-20.15,0,*7D
1500847319.55,49806,20.88,74214.5,5.79,-19.41,-20.19,0,*72
1500847320.8,49807,20.88,74216.3,5.77,-19.75,-20.53,0,*74
1500847322.04,49808,20.88,74214.8,5.77,-19.75,-20.53,0,*7B
1500847323.25,49809,20.88,74214.0,5.75,-19.71,-20.43,0,*7D
1500847324.47,49810,20.88,74214.5,5.75,-19.65,-20.43,0,*70
1500847325.69,49811,20.88,74216.8,5.75,-19.85,-20.73,0,*7C
1500847326.92,49812,20.88,74218.0,5.75,-19.85,-20.63,0,*7E
1500847328.14,49813,20.88,74216.3,5.77,-19.95,-20.73,0,*7D
1500847329.39,49814,20.88,74218.5,5.77,-19.95,-20.83,0,*75
1500847330.61,49815,20.88,74218.5,5.75,-20.15,-20.93,0,*75
1500847331.83,49816,20.88,74220.8,5.75,-19.99,-20.79,0,*7C
1500847333.04,49817,20.88,74220.3,5.75,-20.15,-20.93,0,*77
1500847334.28,49818,20.88,74220.0,5.71,-20.15,-20.99,0,*76
1500847335.51,49819,20.88,74220.8,5.73,-19.95,-20.73,0,*73
1500847336.74,49820,20.88,74224.0,5.73,-20.05,-20.79,0,*70
1500847337.96,49821,20.88,74220.3,5.71,-20.15,-20.93,0,*76
1500847339.16,49822,20.88,74222.5,5.71,-20.19,-21.09,0,*7B
1500847340.37,49823,20.88,74222.0,5.71,-20.15,-21.09,0,*76
1500847341.58,49824,20.88,74222.5,5.71,-20.15,-21.09,0,*71
1500847342.8,49825,20.88,74220.8,5.71,-19.99,-20.83,0,*7D
1500847344.01,49826,20.88,74224.3,5.71,-20.05,-20.99,0,*7A
1500847345.28,49827,20.88,74226.0,5.69,-20.15,-20.99,0,*73
1500847346.52,49828,20.88,74224.3,5.69,-19.99,-20.83,0,*79
1500847347.74,49829,20.88,74224.8,5.67,-20.05,-20.83,0,*79
1500847348.95,49830,20.88,74222.8,5.71,-19.99,-20.79,0,*7C
1500847350.18,49831,20.88,74226.8,5.69,-19.99,-20.93,0,*70
1500847351.42,49832,20.88,74226.3,5.69,-19.99,-20.83,0,*72
1500847352.66,49833,20.88,74226.5,5.69,-19.85,-20.69,0,*7A
1500847353.88,49834,20.88,74222.5,5.67,-20.05,-20.83,0,*75
1500847355.1,49835,20.88,74224.8,5.67,-19.95,-20.83,0,*77
1500847356.3,49836,20.88,74224.3,5.67,-19.95,-20.69,0,*70
1500847357.5,49837,20.88,74228.0,5.67,-19.95,-20.69,0,*71
1500847358.77,49838,20.88,74226.0,5.69,-19.85,-20.49,0,*73
1500847359.97,49839,20.88,74226.0,5.67,-19.91,-20.73,0,*70
1500847361.19,49840,20.88,74226.5,5.67,-19.95,-20.83,0,*75
1500847362.41,49841,20.88,74226.0,5.63,-20.15,-20.89,0,*78
1500847363.63,49842,20.88,74228.0,5.67,-20.05,-20.83,0,*74
1500847364.84,49843,20.88,74226.0,5.67,-20.05,-20.83,0,*75
1500847366.04,49844,20.88,74220.8,5.63,-19.95,-20.73,0,*7A
1500847367.25,49845,20.88,74224.3,5.63,-19.95,-20.73,0,*7B
1500847368.44,49846,20.88,74220.8,5.67,-19.91,-20.73,0,*78
1500847369.67,49847,20.88,74220.3,5.63,-19.65,-20.43,0,*75
1500847370.92,49848,20.88,74222.3,5.63,-19.65,-20.53,0,*7B
1500847372.16,49849,20.88,74220.8,5.67,-19.61,-20.39,0,*76
1500847373.38,49850,20.88,74222.3,5.67,-19.17,-20.19,0,*7D
1500847374.62,49851,20.88,74214.5,5.67,-19.27,-20.09,0,*7E
1500847375.87,49852,20.88,74218.8,5.67,-19.61,-20.49,0,*7B
1500847377.07,49853,20.88,74218.0,5.67,-19.75,-20.63,0,*77
1500847378.3,49854,20.88,74216.3,5.67,-19.71,-20.49,0,*7C
1500847379.55,49855,20.88,74220.3,5.63,-19.65,-20.53,0,*77
1500847380.75,49856,20.88,74220.0,5.63,-19.47,-20.29,0,*79
1500847381.98,49857,20.88,74218.5,5.63,-19.61,-20.59,0,*7B
1500847383.24,49858,20.88,74216.0,5.67,-19.61,-20.49,0,*71
1500847384.44,49859,20.88,74214.3,5.67,-20.09,-20.89,0,*78
1500847385.65,49860,20.88,74216.8,5.67,-20.09,-21.03,0,*71
1500847386.87,49861,20.88,74220.0,5.63,-20.29,-21.23,0,*74
1500847388.09,49862,20.88,74222.5,5.63,-20.15,-20.93,0,*72
1500847389.28,49863,20.88,74218.3,5.67,-19.91,-20.69,0,*74
1500847390.51,49864,20.88,74220.3,5.63,-19.65,-20.59,0,*7F
1500847391.75,49865,20.88,74224.5,5.63,-19.61,-20.39,0,*7C
1500847392.99,49866,20.88,74222.5,5.63,-19.31,-20.15,0,*74
1500847394.24,49867,20.88,74220.8,5.61,-19.37,-20.15,0,*71
1500847395.46,49868,20.88,74216.5,5.63,-19.23,-19.99,0,*77
1500847396.69,49869,20.88,74216.8,5.63,-19.23,-20.09,0,*75
1500847397.91,49870,20.88,74222.5,5.63,-19.17,-19.85,0,*74
1500847399.14,49871,20.88,74216.3,5.67,-18.69,-19.57,0,*76
1500847400.39,49872,20.88,74220.3,5.69,-18.35,-19.13,0,*72
1500847401.64,49873,20.88,74222.0,5.69,-18.79,-19.57,0,*7B
1500847402.86,49874,20.88,74222.5,5.71,-19.13,-19.85,0,*77
1500847404.08,49875,20.88,74220.8,5.71,-19.51,-20.35,0,*71
1500847405.33,49876,20.88,74222.8,5.71,-19.65,-20.49,0,*7E
1500847406.58,49877,20.88,74226.5,5.69,-19.57,-20.43,0,*7D
1500847407.84,49878,20.88,74224.0,5.69,-19.57,-20.43,0,*72
1500847409.09,49879,20.88,74220.8,5.69,-19.51,-20.35,0,*74
1500847410.31,49880,20.88,74220.0,5.71,-19.51,-20.19,0,*75
1500847411.52,49881,20.88,74222.5,5.71,-19.07,-19.85,0,*78
1500847412.77,49882,20.88,74226.8,5.69,-19.37,-20.15,0,*72
1500847413.97,49883,20.88,74226.0,5.71,-19.37,-20.05,0,*7B
1500847415.16,49884,20.88,74226.0,5.71,-19.07,-19.75,0,*72
1500847416.37,49885,20.88,74222.3,5.71,-19.03,-19.81,0,*7C
1500847417.62,49886,20.88,74214.0,5.73,-18.93,-19.71,0,*7A
1500847418.86,49887,20.88,74212.5,5.73,-18.55,-19.37,0,*73
1500847420.1,49888,20.88,74214.3,5.73,-19.03,-19.65,0,*79
1500847421.35,49889,20.88,74210.3,5.73,-19.07,-19.85,0,*72
1500847422.57,49890,20.88,74204.3,5.73,-19.17,-19.95,0,*7A
1500847423.82,49891,20.88,74194.8,5.75,-18.89,-19.61,0,*70
1500847425.01,49892,20.88,74188.8,5.75,-18.79,-19.51,0,*7F
1500847426.23,49893,20.88,74188.0,5.75,-18.17,-18.93,0,*79
1500847427.44,49894,20.88,74182.5,5.77,-18.21,-18.99,0,*73
1500847428.71,49895,20.88,74192.3,5.77,-18.55,-19.27,0,*75
1500847429.93,49896,20.88,74198.8,5.77,-18.69,-19.47,0,*7F
1500847431.17,49897,20.88,74200.0,5.77,-19.03,-19.81,0,*79
1500847432.41,49898,20.88,74188.3,5.77,-19.03,-19.81,0,*76
1500847433.66,49899,20.88,74200.5,5.79,-19.27,-20.15,0,*78
1500847434.88,49900,20.88,74210.5,5.81,-18.99,-19.71,0,*72
1500847436.08,49901,20.88,74206.5,5.79,-19.51,-20.29,0,*76
1500847437.3,49902,20.88,74214.3,5.79,-19.37,-20.15,0,*7A
1500847438.5,49903,20.88,74210.5,5.79,-19.51,-20.43,0,*78
1500847439.77,49904,20.88,74206.5,5.81,-19.41,-20.19,0,*76
1500847441.0,49905,20.88,74210.5,5.79,-19.61,-20.43,0,*7D
1500847442.25,49906,20.88,74208.8,5.81,-19.75,-20.53,0,*7D
1500847443.49,49907,20.88,74210.8,5.81,-19.71,-20.35,0,*78
1500847444.75,49908,20.88,74212.3,5.79,-19.61,-20.49,0,*7A
1500847445.97,49909,20.88,74212.5,5.79,-19.41,-20.29,0,*7F
1500847447.17,49910,20.88,74214.8,5.79,-19.51,-20.29,0,*76
1500847448.41,49911,20.88,74208.8,5.79,-19.41,-20.19,0,*75
1500847449.61,49912,20.81,74204.8,5.79,-19.51,-20.29,0,*74
1500847450.86,49913,20.88,74204.5,5.79,-19.41,-20.19,0,*77
1500847452.1,49914,20.88,74210.3,5.79,-19.41,-20.19,0,*70
1500847453.33,49915,20.88,74212.0,5.77,-19.71,-20.43,0,*73
1500847454.6,49916,20.88,74216.3,5.81,-19.61,-20.35,0,*79
1500847455.83,49917,20.88,74218.3,5.81,-19.51,-20.29,0,*76
1500847457.07,49918,20.88,74218.3,5.79,-19.57,-20.35,0,*75
1500847458.35,49919,20.88,74214.8,5.81,-19.57,-20.35,0,*73
1500847459.58,49920,20.88,74208.0,5.79,-19.61,-20.43,0,*7A
1500847460.83,49921,20.88,74214.3,5.79,-19.85,-20.53,0,*70
1500847462.1,49922,20.88,74208.8,5.81,-19.61,-20.19,0,*70
1500847463.35,49923,20.88,74214.3,5.79,-19.41,-20.19,0,*74
1500847464.58,49924,20.88,74214.0,5.79,-19.27,-20.05,0,*7E
1500847465.8,49925,20.88,74214.0,5.79,-19.71,-20.35,0,*7F
1500847467.0,49926,20.88,74214.8,5.79,-19.99,-20.69,0,*73
1500847468.2,49927,20.88,74216.8,5.79,-19.99,-20.63,0,*78
1500847469.45,49928,20.88,74216.0,5.79,-19.85,-20.53,0,*79
1500847470.64,49929,20.88,74216.5,5.79,-20.05,-20.93,0,*76
1500847471.9,49930,20.88,74218.8,5.77,-20.19,-21.03,0,*75
1500847473.14,49931,20.81,74220.0,5.77,-20.35,-21.13,0,*7B
1500847474.33,49932,20.88,74224.0,5.75,-20.09,-20.63,0,*73
1500847475.57,49933,20.88,74224.3,5.77,-19.47,-20.19,0,*7D
1500847476.83,49934,20.88,74224.5,5.75,-18.93,-19.61,0,*75
1500847478.08,49935,20.88,74218.3,5.77,-18.99,-19.57,0,*79
1500847479.28,49936,20.88,74218.0,5.79,-18.69,-19.37,0,*7D
1500847480.52,49937,20.88,74218.8,5.79,-18.93,-19.61,0,*7A
1500847481.75,49938,20.88,74212.5,5.79,-19.13,-19.85,0,*76
1500847482.95,49939,20.88,74212.5,5.79,-19.37,-19.99,0,*7C
1500847484.19,49940,20.88,74212.8,5.81,-19.51,-20.15,0,*7B
1500847485.4,49941,20.88,74214.8,5.79,-19.37,-20.05,0,*7C
1500847486.62,49942,20.88,74212.3,5.81,-19.13,-19.75,0,*73
1500847487.84,49943,20.88,74214.8,5.79,-19.23,-19.99,0,*74
1500847489.04,49944,20.81,74210.0,5.79,-19.51,-20.29,0,*77
1500847490.32,49945,20.88,74206.5,5.81,-19.61,-20.19,0,*71
1500847491.55,49946,20.88,74204.3,5.81,-19.71,-20.43,0,*7C
1500847492.77,49947,20.88,74198.3,5.81,-19.99,-20.63,0,*79
1500847494.01,49948,20.88,74202.8,5.81,-19.99,-20.79,0,*7D
1500847495.23,49949,20.81,74206.8,5.79,-19.99,-20.79,0,*7B
1500847496.43,49950,20.88,74204.8,5.79,-19.91,-20.69,0,*7A
1500847497.62,49951,20.88,74208.3,5.79,-19.99,-20.69,0,*73
1500847498.82,49952,20.88,74212.0,5.79,-19.99,-20.63,0,*7A
1500847500.02,49953,20.88,74210.3,5.79,-19.91,-20.69,0,*79
1500847501.25,49954,20.88,74214.8,5.79,-19.61,-20.43,0,*79
1500847502.45,49955,20.88,74218.3,5.79,-19.91,-20.63,0,*75
1500847503.69,49956,20.88,74216.3,5.77,-20.05,-20.83,0,*71
1500847504.91,49957,20.88,74214.5,5.77,-20.09,-20.89,0,*76
1500847506.1,49958,20.88,74216.8,5.75,-20.25,-20.93,0,*7E
1500847507.34,49959,20.88,74216.0,5.75,-19.61,-20.39,0,*75
1500847508.59,49960,20.88,74212.8,5.79,-19.61,-20.35,0,*7F
1500847509.86,49961,20.88,74212.5,5.77,-19.61,-20.35,0,*70
1500847511.08,49962,20.88,74216.5,5.79,-19.41,-20.05,0,*7C
1500847512.3,49963,20.88,74214.3,5.79,-19.51,-20.19,0,*71
1500847513.53,49964,20.88,74212.5,5.79,-19.57,-20.29,0,*73
1500847514.81,49965,20.88,74212.0,5.77,-19.65,-20.49,0,*7B
1500847516.03,49966,20.88,74208.3,5.77,-19.75,-20.39,0,*7E
1500847517.3,49967,20.88,74210.0,5.77,-19.65,-20.35,0,*72
1500847518.53,49968,20.81,74206.5,5.77,-19.75,-20.39,0,*70
1500847519.79,49969,20.81,74202.8,5.77,-19.81,-20.49,0,*7D
1500847521.04,49970,20.88,74200.3,5.77,-19.91,-20.53,0,*7F
1500847522.25,49971,20.88,74198.3,5.79,-20.05,-20.79,0,*7F
1500847523.51,49972,20.88,74196.5,5.77,-20.19,-21.03,0,*73
1500847524.78,49973,20.88,74194.0,5.77,-20.19,-20.99,0,*70
1500847526.02,49974,20.88,74208.0,5.77,-20.05,-20.83,0,*71
1500847527.26,49975,20.81,74210.8,5.77,-20.25,-21.03,0,*7B
1500847528.5,49976,20.88,74214.5,5.77,-20.09,-20.99,0,*74
1500847529.72,49977,20.88,74208.8,5.77,-20.09,-20.89,0,*74
1500847530.94,49978,20.88,74210.0,5.75,-20.25,-21.03,0,*74
1500847532.16,49979,20.88,74210.5,5.75,-20.15,-20.93,0,*7E
1500847533.4,49980,20.88,74208.8,5.73,-20.15,-20.89,0,*75
1500847534.63,49981,20.88,74212.5,5.73,-19.99,-20.63,0,*7E
1500847535.86,49982,20.88,74216.8,5.73,-20.09,-20.79,0,*75
1500847537.08,49983,20.88,74212.8,5.75,-20.15,-20.93,0,*7B
1500847538.32,49984,20.88,74214.8,5.73,-20.29,-21.03,0,*7D
1500847539.52,49985,20.88,74212.8,5.73,-20.29,-21.09,0,*76
1500847540.73,49986,20.88,74214.8,5.71,-20.29,-20.99,0,*7F
1500847541.97,49987,20.88,74214.5,5.73,-20.09,-20.79,0,*70
1500847543.17,49988,20.88,74216.0,5.73,-20.29,-21.09,0,*7B
1500847544.39,49989,20.88,74218.0,5.73,-20.59,-21.39,0,*7E
1500847545.62,49990,20.88,74216.8,5.73,-20.43,-21.17,0,*71
1500847546.89,49991,20.88,74216.3,5.69,-20.49,-21.23,0,*76
1500847548.15,49992,20.88,74218.3,5.69,-20.43,-21.23,0,*7F
1500847549.37,49993,20.88,74216.8,5.69,-20.59,-21.43,0,*73
1500847550.64,49994,20.88,74214.8,5.69,-20.49,-21.23,0,*73
1500847551.9,49995,20.88,74214.8,5.69,-20.43,-21.23,0,*78
1500847553.09,49996,20.88,74212.0,5.67,-20.39,-21.13,0,*7B
1500847554.34,49997,20.88,74210.0,5.67,-20.19,-20.99,0,*7B
1500847555.55,49998,20.88,74210.5,5.67,-20.35,-21.13,0,*79
1500847556.79,49999,20.88,74208.5,5.67,-20.35,-21.03,0,*79
1500847557.98,50000,20.88,74208.0,5.67,-20.39,-21.17,0,*71
1500847559.26,50001,20.88,74208.0,5.69,-20.49,-21.23,0,*7E
1500847560.51,50002,20.88,74214.5,5.67,-20.53,-21.27,0,*7C
1500847561.73,50003,20.88,74216.5,5.67,-20.53,-21.17,0,*7E
1500847562.97,50004,20.81,74216.8,5.67,-20.35,-20.99,0,*7E
1500847564.16,50005,20.88,74216.0,5.63,-20.09,-20.73,0,*70
1500847565.38,50006,20.88,74216.3,5.67,-20.09,-20.83,0,*78
1500847566.6,50007,20.81,74212.3,5.63,-20.15,-20.93,0,*71
1500847567.81,50008,20.88,74210.8,5.63,-20.25,-21.03,0,*75
1500847569.03,50009,20.88,74212.3,5.63,-20.29,-21.03,0,*78
1500847570.25,50010,20.88,74216.8,5.63,-20.15,-20.89,0,*7C
1500847571.47,50011,20.81,74212.8,5.63,-20.15,-20.93,0,*76
1500847572.65,50012,20.88,74220.3,5.63,-20.29,-21.09,0,*78
1500847573.91,50013,20.81,74218.5,5.61,-20.43,-21.23,0,*7F
1500847575.13,50014,20.88,74220.0,5.61,-20.43,-21.17,0,*7F
1500847576.35,50015,20.88,74220.5,5.61,-20.39,-21.17,0,*73
1500847577.6,50016,20.81,74216.5,5.61,-20.25,-21.03,0,*78
1500847578.82,50017,20.88,74220.3,5.61,-19.99,-20.73,0,*72
1500847580.06,50018,20.88,74216.0,5.61,-19.85,-20.69,0,*7B
1500847581.28,50019,20.81,74214.0,5.63,-20.15,-20.93,0,*7E
1500847582.48,50020,20.88,74212.5,5.61,-20.29,-21.09,0,*7B
1500847583.76,50021,20.88,74214.5,5.61,-20.53,-21.23,0,*7F
1500847585.01,50022,20.88,74212.3,5.61,-20.43,-21.23,0,*7D
1500847586.29,50023,20.81,74208.0,5.61,-20.53,-21.23,0,*7D
1500847587.54,50024,20.88,74214.5,5.59,-20.35,-21.23,0,*71
1500847588.72,50025,20.81,74212.5,5.59,-20.29,-21.09,0,*75
1500847589.91,50026,20.88,74216.8,5.59,-20.29,-21.09,0,*76
1500847591.14,50027,20.88,74220.8,5.59,-20.43,-21.23,0,*73
1500847592.39,50028,20.88,74222.5,5.59,-20.35,-21.23,0,*7D
1500847593.64,50029,20.88,74218.3,5.57,-20.29,-21.23,0,*7F
1500847594.84,50030,20.81,74212.3,5.59,-20.43,-21.13,0,*76
1500847596.09,50031,20.81,74214.8,5.59,-20.35,-21.23,0,*75
1500847597.36,50032,20.88,74216.5,5.57,-20.15,-20.83,0,*71
1500847598.62,50033,20.81,74218.8,5.57,-20.19,-20.99,0,*77
1500847599.88,50034,20.88,74216.3,5.59,-20.49,-21.23,0,*7B
1500847601.16,50035,20.88,74216.0,5.57,-20.49,-21.27,0,*70
1500847602.4,50036,20.88,74214.5,5.57,-20.49,-21.39,0,*7C
1500847603.63,50037,20.88,74212.5,5.57,-20.63,-21.39,0,*75
1500847604.85,50038,20.88,74218.8,5.57,-20.63,-21.43,0,*77
1500847606.03,50039,20.81,74216.0,5.53,-20.69,-21.43,0,*78
1500847607.28,50040,20.81,74216.8,5.51,-20.73,-21.53,0,*7E
1500847608.51,50041,20.81,74218.0,5.51,-20.59,-21.39,0,*7B
1500847609.75,50042,20.88,74222.0,5.53,-20.53,-21.33,0,*7A
1500847611.03,50043,20.88,74222.5,5.51,-20.53,-21.23,0,*78
1500847612.29,50044,20.88,74220.3,5.51,-20.43,-21.23,0,*7E
1500847613.57,50045,20.81,74220.3,5.51,-20.53,-21.23,0,*7E
1500847614.79,50046,20.88,74218.8,5.51,-20.29,-20.93,0,*7A
1500847616.03,50047,20.88,74210.5,5.51,-20.25,-21.03,0,*7F
1500847617.26,50048,20.81,74204.5,5.51,-19.99,-20.73,0,*7B
1500847618.51,50049,20.81,74202.3,5.51,-19.99,-20.83,0,*75
1500847619.73,50050,20.81,74198.5,5.51,-20.29,-20.93,0,*7D
1500847620.97,50051,20.81,74202.8,5.51,-20.29,-21.03,0,*74
1500847622.24,50052,20.88,74202.8,5.51,-20.15,-20.83,0,*71
1500847623.49,50053,20.88,74208.0,5.51,-20.15,-20.89,0,*7A
1500847624.72,50054,20.88,74212.0,5.51,-19.95,-20.73,0,*7A
1500847625.97,50055,20.88,74218.3,5.51,-20.25,-21.03,0,*7C
1500847627.18,50056,20.88,74218.3,5.51,-20.29,-21.09,0,*79
1500847628.39,50057,20.88,74218.8,5.53,-20.09,-20.83,0,*7B
1500847629.62,50058,20.88,74210.0,5.51,-20.25,-20.89,0,*72
1500847630.88,50059,20.81,74206.0,5.51,-20.43,-21.23,0,*72
1500847632.11,50060,20.81,74204.0,5.49,-20.59,-21.27,0,*7E
1500847633.31,50061,20.88,74208.0,5.49,-20.35,-21.09,0,*79
1500847634.54,50062,20.81,74210.8,5.51,-20.09,-20.89,0,*75
1500847635.79,50063,20.88,74214.5,5.51,-20.15,-20.89,0,*79
1500847637.02,50064,20.81,74212.3,5.49,-20.15,-20.89,0,*77
1500847638.25,50065,20.81,74210.5,5.51,-19.95,-20.59,0,*70
1500847639.49,50066,20.81,74204.8,5.49,-19.81,-20.49,0,*7E
1500847640.69,50067,20.81,74204.0,5.49,-19.71,-20.43,0,*7A
1500847641.95,50068,20.88,74206.0,5.51,-19.65,-20.43,0,*79
1500847643.18,50069,20.81,74204.0,5.51,-19.95,-20.73,0,*74
1500847644.45,50070,20.81,74206.3,5.51,-20.15,-21.03,0,*78
1500847645.67,50071,20.81,74206.0,5.51,-20.25,-20.93,0,*72
1500847646.91,50072,20.81,74206.5,5.51,-20.29,-21.03,0,*75
1500847648.13,50073,20.81,74206.8,5.51,-20.25,-20.93,0,*70
1500847649.38,50074,20.81,74206.0,5.51,-20.39,-21.03,0,*72
1500847650.6,50075,20.81,74214.8,5.51,-20.29,-20.93,0,*7A
1500847651.81,50076,20.81,74214.5,5.49,-20.29,-20.99,0,*7A
1500847653.05,50077,20.88,74218.3,5.49,-20.35,-20.99,0,*76
1500847654.27,50078,20.81,74216.8,5.49,-20.15,-20.93,0,*71
1500847655.48,50079,20.81,74216.3,5.49,-20.15,-20.93,0,*70
1500847656.7,50080,20.81,74216.8,5.49,-20.19,-20.93,0,*7A
1500847657.94,50081,20.88,74212.8,5.49,-20.15,-20.79,0,*73
1500847659.14,50082,20.88,74214.8,5.49,-19.99,-20.73,0,*74
1500847660.35,50083,20.88,74218.8,5.49,-20.29,-20.99,0,*70
1500847661.56,50084,20.88,74220.5,5.49,-20.19,-20.93,0,*7E
1500847662.78,50085,20.81,74216.8,5.45,-20.15,-20.93,0,*7F
1500847664.01,50086,20.81,74216.5,5.49,-19.85,-20.63,0,*7C
1500847665.26,50087,20.81,74214.0,5.51,-19.65,-20.29,0,*74
1500847666.46,50088,20.81,74212.0,5.49,-19.95,-20.63,0,*73
1500847667.67,50089,20.81,74216.3,5.49,-20.05,-20.79,0,*7A
1500847668.9,50090,20.81,74212.5,5.51,-19.75,-20.43,0,*7F
1500847670.12,50091,20.81,74204.8,5.53,-19.71,-20.49,0,*72
1500847671.38,50092,20.81,74196.3,5.51,-19.99,-20.83,0,*73
1500847672.6,50093,20.88,74206.8,5.51,-20.09,-20.73,0,*7E
1500847673.82,50094,20.88,74212.3,5.51,-20.09,-20.89,0,*7C
1500847675.05,50095,20.88,74212.5,5.51,-19.95,-20.73,0,*77
1500847676.28,50096,20.81,74212.0,5.51,-20.09,-20.89,0,*7E
1500847677.52,50097,20.81,74210.0,5.51,-19.81,-20.59,0,*78
1500847678.77,50098,20.81,74204.0,5.51,-20.09,-20.83,0,*7A
1500847679.99,50099,20.88,74206.0,5.51,-20.25,-20.93,0,*74
1500847681.24,50100,20.81,74204.5,5.51,-20.15,-20.93,0,*76
1500847682.45,50101,20.81,74214.0,5.51,-20.29,-21.09,0,*7A
1500847683.69,50102,20.81,74210.3,5.51,-20.29,-21.03,0,*73
1500847684.96,50103,20.81,74206.0,5.51,-20.15,-21.03,0,*7D
1500847686.16,50104,20.81,74208.0,5.51,-20.29,-21.09,0,*7F
1500847687.39,50105,20.81,74210.5,5.49,-20.43,-21.23,0,*73
1500847688.57,50106,20.88,74214.0,5.49,-20.29,-21.09,0,*74
1500847689.79,50107,20.81,74210.8,5.49,-20.35,-21.13,0,*73
1500847690.98,50108,20.81,74212.8,5.49,-20.43,-21.13,0,*7D
1500847692.18,50109,20.81,74214.3,5.49,-20.59,-21.39,0,*7F
1500847693.38,50110,20.81,74212.0,5.45,-20.63,-21.43,0,*7F
1500847694.6,50111,20.81,74210.3,5.49,-20.59,-21.27,0,*79
1500847695.8,50112,20.88,74210.3,5.49,-20.59,-21.39,0,*75
1500847697.05,50113,20.88,74204.8,5.49,-20.49,-21.27,0,*7A
1500847698.24,50114,20.81,74210.0,5.45,-20.63,-21.43,0,*7B
1500847699.43,50115,20.81,74214.5,5.45,-20.29,-21.09,0,*7A